Simultaneous Nadir Overpasses (SNOs) Predictions

Prediction of SNOs between NOAA-19 and TERRA Satellite Orbit:

Table of predicted SNOs for the next 14.0 days since TLE Epoch: 8/29/2016
Index Date (NOAA-19) Time (NOAA-19) Lat,Lon (NOAA-19) SZA (NOAA-19 ) Date (TERRA) Time (TERRA) Lat,Lon (TERRA) SZA (TERRA ) Distance(km) Time Diff (sec)
1 08/29/2016 17:20:03 74.16, -72.16 65.21 08/29/2016 17:20:46 74.14, -72.25 65.19 3.11 43
2 08/29/2016 18:11:06 -74.06, 95.32 114.87 08/29/2016 18:10:15 -74.06, 95.21 114.88 3.29 51
3 08/31/2016 22:54:08 -74.16, 24.37 113.98 08/31/2016 22:54:29 -74.14, 24.31 114.00 2.71 21
4 08/31/2016 23:45:03 74.08,-168.15 65.96 08/31/2016 23:43:56 74.06,-168.22 65.93 2.79 67
5 09/03/2016 04:28:05 74.19, 120.86 66.87 09/03/2016 04:28:09 74.18, 120.98 66.86 3.76 4
6 09/03/2016 05:18:55 -73.44, -70.03 113.78 09/03/2016 05:17:49 -73.53, -72.81 113.82 88.66 66
7 09/05/2016 09:11:10 74.44, 49.47 67.92 09/05/2016 09:12:21 74.34, 50.29 67.86 27.14 71
8 09/05/2016 10:02:10 -74.17,-142.57 112.31 09/05/2016 10:01:52 -74.16,-142.49 112.33 2.95 18
9 09/07/2016 14:45:11 -74.23, 146.56 111.43 09/07/2016 14:46:06 -74.21, 146.57 111.44 2.60 55
10 09/07/2016 15:36:05 74.13, -45.88 68.50 09/07/2016 15:35:33 74.13, -45.98 68.49 2.91 32
11 09/09/2016 20:19:07 74.24,-116.89 69.44 09/09/2016 20:19:46 74.22,-116.82 69.43 2.91 39
12 09/09/2016 21:10:11 -74.16, 50.55 110.63 09/09/2016 21:09:15 -74.15, 50.64 110.64 2.90 56
